Regional Weather Roundup
Issued by NWS Sioux Falls, SD

Home | Current Version | Previous Version | Text Only | Print | Product List | Glossary On
Versions: 1 2 3 4 5 6 7 8 9 10 11 12 13 14 15 16 17 18 19 20 21 22 23 24 25 26 27 28 29 30 31 32 33 34 35 36 37 38 39 40 41 42 43 44 45 46 47 48 49 50
000
ASUS43 KFSD 260810
RWRFSD

WEATHER ROUNDUP FOR SE SOUTH DAKOTA/SW MINNESOTA/NW IOWA
NATIONAL WEATHER SERVICE SIOUX FALLS SD
300 AM CDT TUE JUL 26 2016

NOTE: "FAIR" INDICATES FEW OR NO CLOUDS BELOW 12,000 FEET WITH NO
SIGNIFICANT WEATHER AND OR OBSTRUCTIONS TO VISIBILITY.


SDZ038>040-050-052>070-260900-
SOUTHEAST SOUTH DAKOTA

CITY           SKY/WX    TMP DP  RH WIND       PRES   REMARKS
BROOKINGS      PTCLDY    67  63  87 S9        30.06F
CHAMBERLAIN    CLEAR     74  65  71 S9        30.03S
HURON          CLEAR     67  60  78 S8        30.01S
MADISON        FAIR      64  64 100 S9        30.08S
MITCHELL       CLEAR     68  62  81 S8        30.04S
SIOUX FALLS    CLEAR     71  63  75 S7        30.08S
WINNER         FAIR      75  60  59 S16G23    30.04F
YANKTON        CLEAR     70  61  73 S3        30.06F
$$

MNZ071-072-080-081-089-090-097-098-260900-
SOUTHWEST MINNESOTA

CITY           SKY/WX    TMP DP  RH WIND       PRES   REMARKS
FAIRMONT       CLEAR     68  63  83 S7        30.07F
JACKSON        CLEAR     68  63  83 S6        30.10S
LUVERNE        CLEAR     63  59  88 CALM      30.10S
MARSHALL       PTCLDY    70  64  81 S7        30.04F
MONTEVIDEO     CLEAR     68  63  83 SW6       30.04S
REDWOOD FALLS  PTCLDY    69  63  81 S8        30.04F
TRACY          CLOUDY    71  65  83 SW13      30.06F
WINDOM         CLOUDY    70  63  78 S3        30.09S
WORTHINGTON    CLEAR     70  63  78 SW8       30.10S
$$

IAZ001>003-012>014-020>022-031-032-NEZ013-014-SDZ071-260900-
NORTHWEST IOWA

CITY           SKY/WX    TMP DP  RH WIND       PRES   REMARKS
CHEROKEE       CLEAR     64  64 100 CALM      30.10S
DENISON        CLEAR     63  61  94 CALM      30.08F
ESTHERVILLE    CLEAR     65  63  93 SW5       30.09S
LE MARS        CLEAR     66  63  88 CALM      30.10S
SHELDON        CLEAR     64  63  94 CALM      30.09S
SIOUX CITY     CLEAR     68  63  84 E5        30.08F
SPENCER        CLEAR     63  61  93 SW5       30.10S
STORM LAKE     CLEAR     66  63  88 SW6       30.11F
$$

ABBREVIATIONS USED IN REMARKS
   TC - TEMPERATURE IN CELSIUS
  WCI - WIND CHILL INDEX
   HX - HEAT INDEX
  VSB - VISIBILITY




USA.gov is the U.S. government's official web portal to all federal, state and local government web resources and services.